Regional Weather Roundup
Issued by NWS

Home | Current Version | Previous Version | Text Only | Print | Product List | Glossary On
Versions: 1 2 3 4 5 6 7 8 9 10 11 12 13 14 15 16 17 18 19 20 21 22 23 24 25 26 27 28 29 30 31 32 33 34 35 36 37 38 39 40 41 42 43 44 45 46 47 48 49 50
000
ASCA42 TJSJ 201911
RWRPR
PUERTO RICO/U.S. VIRGIN ISLANDS HOURLY WEATHER ROUNDUP
NATIONAL WEATHER SERVICE SAN JUAN PR
300 PM AST SUN APR 20 2014

PRZ001-004-202000-
PUERTO RICO

CITY           SKY/WX    TMP DP  RH WIND       PRES   REMARKS
SAN JUAN LMM   PTSUNNY   82  73  74 VRB5      30.02F
CEIBA          SUNNY     84  72  65 E17G24    30.06F
$$

PRZ006-007-202000-
U.S. VIRGIN ISLANDS

CITY           SKY/WX    TMP DP  RH WIND       PRES   REMARKS
CHARLOTTE AMA  SUNNY     84  72  65 SE16      30.03F
CHRISTIANSTED  SUNNY     84  70  61 E14       30.04F
$$

HOURLY WEATHER ROUNDUP FOR THE NEWS MEDIA

CITY           SKY/WX    TMP DP  RH WIND       PRES   REMARKS
MIAMI          PTSUNNY   77  57  50 NW8       30.02F
ORLANDO        CLOUDY    70  56  61 N13       30.05F
NEW YORK       PTSUNNY   51  27  39 SE14      30.47F
NEWARK         MOSUNNY   52  25  35 SE13G18   30.46F
CHICAGO        PTSUNNY   75  39  27 SW13      30.13F
HARTFORD       SUNNY     53  20  27 E10       30.45F
BOSTON         PTSUNNY   47  26  44 SE12      30.49F
DALLAS         PTSUNNY   78  52  40 SE14G22   30.10F
PHILADELPHIA   MOSUNNY   58  29  33 E10G18    30.42F



USA.gov is the U.S. government's official web portal to all federal, state and local government web resources and services.